Weather Roundup
Issued by NWS Corpus Christi, TX

Home | Current Version | Previous Version | Text Only | Print | Product List | Glossary On
Versions: 1 2 3 4 5 6 7 8 9 10 11 12 13 14 15 16 17 18 19 20 21 22 23 24 25 26 27 28 29 30 31 32 33 34 35 36 37 38 39 40 41 42 43 44 45 46 47 48 49 50
000
ASUS44 KCRP 251410
HRRCRP

SOUTH TEXAS REGIONAL WEATHER ROUNDUP
NATIONAL WEATHER SERVICE CORPUS CHRISTI TX
800 AM CST SUN JAN 25 2015


TXZ229>244-251500-
...CORPUS CHRISTI AREA OBSERVATIONS...

CITY           SKY/WX    TMP DP  RH WIND       PRES   REMARKS
CORPUS CHRISTI PTCLDY    40  37  89 SW3       30.10F
NAS CORPUS CHR CLEAR     44  39  82 SW8       30.10S
ROCKPORT       PTCLDY    45  39  79 SW5       30.10R
KINGSVILLE NAS PTCLDY    42  38  85 CALM      30.11S
ALICE          PTCLDY    48  37  65 W7        30.10R
FALFURRIAS     PTCLDY    40  35  84 CALM      30.11S
$$

...VICTORIA AREA OBSERVATIONS...

CITY           SKY/WX    TMP DP  RH WIND       PRES   REMARKS
VICTORIA       CLEAR     48  37  65 W9        30.08R
BEEVILLE       FAIR      47  36  66 W8        30.08F
PLEASANTON     CLEAR     40  36  84 W5        30.10R
SAN ANTONIO    PTCLDY    39  34  82 NW6       30.08R
$$

...LAREDO AREA OBSERVATIONS...

CITY           SKY/WX    TMP DP  RH WIND       PRES   REMARKS
LAREDO         CLEAR     43  37  81 CALM      30.14
COTULLA        PTCLDY    45  37  73 CALM      30.11R
DEL RIO        PTCLDY    40  36  86 NW6       30.13R
MCALLEN        MOCLDY    47  43  86 N3        30.12R FOG
HEBBRONVILLE   CLEAR     45  38  77 SW7       30.11S
$$

...OTHER TEXAS OBSERVATIONS...

CITY           SKY/WX    TMP DP  RH WIND       PRES   REMARKS
BROWNSVILLE    PTCLDY    48  42  80 SW3       30.12R
HOUSTON        PTCLDY    45  37  73 SW6       30.02S
COL. STATION   CLEAR     39  35  86 W5        30.03R
AUSTIN         PTCLDY    38  34  85 W5        30.04R
WACO           CLEAR     39  34  82 NW7       30.02R
FORT WORTH     PTCLDY    47  35  63 NW13      29.99R
WICHITA FALLS  CLEAR     44  33  65 NW16      30.05R
LUBBOCK        PTCLDY    32  28  85 NW7       30.17R
EL PASO        PTCLDY    31  25  78 N7        30.21R
$$

...MARINE OBSERVATIONS...

STATION/POSITION TIME  SKY/WX   TEMP    WIND        PRES    VSBY  WAVE   SWELL
                                AIR SEA DIR/SP/G                  HT/PER HT/PER
                 (UTC)          (F)     (DEG/KT/KT) (MB)    (MI)  (FT/S) (FT/S)
PORT ARANSAS     1400            50 53  250/ 10/ 11 1019.5F
BUOY 90 E PORT A 1400            63 69  270/ 17/ 21 1018.9R         3/ 5
BUOY 45 SE BAFFI 1400            60 66  240/ 12/ 14 1019.0F         3/ 5
BUOY 200 E PT IS 1400            63 72  280/  8/ 12 1019.8R         2/ 5
BUOY 15 E GALVES 1400            55 54  240/ 14/ 16 1016.9S         2/ 5
$$


USA.gov is the U.S. government's official web portal to all federal, state and local government web resources and services.